Find STARLINK-37612

NORAD ID: 70627 Constellation: starlink operational
LEOCIRCULARRETROGRADE

实时位置

正在加载3D地球...

关于 STARLINK-37612

正在加载描述...

即将过境

Passes for default location (London). Set your location on the main map for personalized predictions.

高度历史

Loading altitude history...

两行轨道根数

1 70627C 26101Q 26126.32618056 .00346460 00000+0 54238-3 0 1269
2 70627 97.2846 339.8681 0010041 258.2970 71.8456 16.03726160 11
Epoch: May 6, 2026 • Age: 19 hours